Location: Cran-Gévrier
(45.9039°N, 6.1012°E)
Time: 09:53:57
(UTC+00:00)

Envisat - Visible Passes

Search period start: 28 May 2023 00:00
Search period end: 07 June 2023 00:00
Orbit: 763 x 765 km, 98.2° (Epoch: 27 May)

Date Brightness Start Highest point End Pass type
(mag) Time Alt. Az. Time Alt. Az. Time Alt. Az.
28 May 4.4 02:54:42 10° NNE 02:59:24 36° E 03:04:04 10° SSE visible
29 May 5.5 02:18:34 10° NE 02:21:55 17° E 02:25:15 10° SE visible
31 May 4.8 02:42:30 10° NE 02:46:54 29° E 02:51:15 10° SSE visible
01 Jun 5.6 02:06:52 10° ENE 02:09:21 13° E 02:11:48 10° ESE visible
02 Jun 4.0 03:06:51 10° NNE 03:11:46 47° E 03:16:39 10° S visible
03 Jun 5.2 02:30:23 10° NE 02:34:22 23° E 02:38:19 10° SE visible
04 Jun 5.9 01:56:19 10° E 01:56:44 10° E 01:57:10 10° E visible
05 Jun 4.4 02:54:34 10° NNE 02:59:17 37° E 03:03:58 10° SSE visible
06 Jun 5.5 02:18:24 10° NE 02:21:48 18° E 02:25:11 10° SE visible
